When you browse on this site, cookies collect data to enhance your experience and personalize the content and advertising you see.
Visit our Privacy Policy to learn more. By continuing to use the site, you agree to this use of cookies and data.
  • Em Portugal
  • Lista de países
  • Para 7 dias
  • Temperatura da água
  • Mapas de satélite
  • Mapa do tempo
  • Widgets de tempo
  • user-avatar
    Iniciar Sessão

    Previsão horária em Sierpnica

    Hoje, 15 Dezembro, Sábado

    Tempo Temperatura Precipitação Vento Pressão Humidade
    00:00 -6°C° 0 mm 2 m/s 714 mmHg 88%
    01:00 -6°C° 0 mm 2 m/s 714 mmHg 89%
    02:00 -7°C° 0 mm 3 m/s 714 mmHg 89%
    03:00 -7°C° 0 mm 3 m/s 714 mmHg 89%
    04:00 -7°C° 0 mm 3 m/s 714 mmHg 90%
    05:00 -6°C° 0 mm 3 m/s 714 mmHg 90%
    06:00 -6°C° 0 mm 3 m/s 714 mmHg 90%
    07:00 -6°C° 0 mm 3 m/s 714 mmHg 90%
    08:00 -6°C° 0 mm 3 m/s 714 mmHg 88%
    09:00 -6°C° 0 mm 3 m/s 715 mmHg 87%
    10:00 -5°C° 0 mm 3 m/s 715 mmHg 85%
    11:00 -5°C° 0 mm 4 m/s 715 mmHg 83%
    12:00 -5°C° 0 mm 4 m/s 714 mmHg 80%
    13:00 -5°C° 0 mm 4 m/s 714 mmHg 78%
    14:00 -5°C° 0 mm 3 m/s 714 mmHg 79%
    15:00 -5°C° 0 mm 3 m/s 714 mmHg 81%
    16:00 -6°C° 0 mm 3 m/s 714 mmHg 83%
    17:00 -6°C° 0 mm 3 m/s 713 mmHg 85%
    18:00 -6°C° 0 mm 3 m/s 713 mmHg 86%
    19:00 -7°C° 0 mm 3 m/s 713 mmHg 87%
    20:00 -6°C° 0 mm 2 m/s 713 mmHg 88%
    21:00 -6°C° 0 mm 2 m/s 713 mmHg 88%
    22:00 -6°C° 0 mm 2 m/s 713 mmHg 89%
    23:00 -6°C° 0 mm 2 m/s 712 mmHg 89%

    Amanhã, 16 Dezembro, Domingo

    Tempo Temperatura Precipitação Vento Pressão Humidade
    00:00 -6°C° 0 mm 2 m/s 712 mmHg 90%
    01:00 -6°C° 0 mm 2 m/s 711 mmHg 90%
    02:00 -7°C° 0 mm 2 m/s 711 mmHg 90%
    03:00 -7°C° 0 mm 2 m/s 711 mmHg 90%
    04:00 -7°C° 0 mm 2 m/s 710 mmHg 90%
    05:00 -6°C° 0 mm 1 m/s 710 mmHg 90%
    06:00 -6°C° 0 mm 1 m/s 710 mmHg 90%
    07:00 -6°C° 0 mm 1 m/s 710 mmHg 90%
    08:00 -6°C° 0 mm 1 m/s 710 mmHg 88%
    09:00 -4°C° 0 mm 1 m/s 709 mmHg 86%
    10:00 -6°C° 0 mm 2 m/s 709 mmHg 83%
    11:00 -5°C° 0 mm 2 m/s 709 mmHg 80%
    12:00 -5°C° 0 mm 2 m/s 709 mmHg 76%
    13:00 -4°C° 0 mm 2 m/s 709 mmHg 73%
    14:00 -5°C° 0 mm 2 m/s 708 mmHg 76%
    15:00 -5°C° 0 mm 2 m/s 708 mmHg 79%
    16:00 -6°C° 0 mm 2 m/s 708 mmHg 83%
    17:00 -6°C° 0 mm 2 m/s 708 mmHg 82%
    18:00 -7°C° 0 mm 3 m/s 708 mmHg 81%
    19:00 -7°C° 0 mm 3 m/s 708 mmHg 81%
    20:00 -6°C° 0 mm 3 m/s 708 mmHg 80%
    21:00 -6°C° 0 mm 3 m/s 708 mmHg 80%
    22:00 -6°C° 0 mm 3 m/s 708 mmHg 80%
    23:00 -6°C° 0 mm 3 m/s 708 mmHg 82%

    Depois de amanhã, 17 Dezembro, Segunda-feira

    Tempo Temperatura Precipitação Vento Pressão Humidade
    00:00 -7°C° 0 mm 3 m/s 708 mmHg 83%
    01:00 -6°C° 0 mm 2 m/s 708 mmHg 85%
    02:00 -6°C° 0 mm 2 m/s 709 mmHg 86%
    03:00 -6°C° 0 mm 2 m/s 709 mmHg 86%
    04:00 -5°C° 0 mm 2 m/s 709 mmHg 86%
    05:00 -5°C° 0 mm 2 m/s 709 mmHg 87%
    06:00 -6°C° 0 mm 2 m/s 709 mmHg 88%
    07:00 -6°C° 0 mm 2 m/s 710 mmHg 89%
    08:00 -5°C° 0 mm 2 m/s 710 mmHg 87%
    09:00 -2°C° 0 mm 1 m/s 711 mmHg 85%
    10:00 -1°C° 0 mm 1 m/s 711 mmHg 83%
    11:00 -1°C° 0 mm 1 m/s 711 mmHg 81%
    12:00 0°C° 0 mm 1 m/s 712 mmHg 80%
    13:00 +1°C° 0 mm 1 m/s 712 mmHg 79%
    14:00 0°C° 0 mm 1 m/s 712 mmHg 81%
    15:00 -1°C° 0 mm 1 m/s 712 mmHg 84%
    16:00 -2°C° 0 mm 1 m/s 713 mmHg 87%
    17:00 -2°C° 0 mm 1 m/s 713 mmHg 87%
    18:00 -2°C° 0 mm 1 m/s 713 mmHg 87%
    19:00 -2°C° 0 mm 1 m/s 714 mmHg 87%
    20:00 -2°C° 0 mm 1 m/s 714 mmHg 87%
    21:00 -2°C° 0 mm 1 m/s 714 mmHg 87%
    22:00 -2°C° 0 mm 1 m/s 715 mmHg 87%
    23:00 -2°C° 0 mm 1 m/s 715 mmHg 87%

    18 Dezembro, Terça-feira

    Tempo Temperatura Precipitação Vento Pressão Humidade
    00:00 -2°C° 0 mm 1 m/s 715 mmHg 87%
    01:00 -4°C° 0 mm 2 m/s 715 mmHg 87%
    02:00 -4°C° 0 mm 2 m/s 715 mmHg 87%
    03:00 -4°C° 0 mm 2 m/s 715 mmHg 87%
    04:00 -4°C° 0 mm 2 m/s 715 mmHg 87%
    05:00 -2°C° 0 mm 1 m/s 715 mmHg 87%
    06:00 -2°C° 0 mm 1 m/s 715 mmHg 88%
    07:00 -2°C° 0 mm 1 m/s 715 mmHg 88%
    08:00 -2°C° 0 mm 1 m/s 715 mmHg 87%
    09:00 -1°C° 0 mm 1 m/s 716 mmHg 85%
    10:00 0°C° 0 mm 1 m/s 716 mmHg 84%
    11:00 0°C° 0 mm 1 m/s 716 mmHg 83%
    12:00 +1°C° 0 mm 1 m/s 716 mmHg 82%
    13:00 +1°C° 0 mm 0 m/s 715 mmHg 81%
    14:00 0°C° 0 mm 0 m/s 715 mmHg 84%
    15:00 -1°C° 0 mm 0 m/s 715 mmHg 86%
    16:00 -1°C° 0 mm 1 m/s 715 mmHg 89%
    17:00 -2°C° 0 mm 0 m/s 715 mmHg 89%
    18:00 -2°C° 0 mm 0 m/s 715 mmHg 90%
    19:00 -3°C° 0 mm 0 m/s 714 mmHg 90%
    20:00 -3°C° 0 mm 0 m/s 714 mmHg 90%
    21:00 -3°C° 0 mm 0 m/s 714 mmHg 90%
    22:00 -2°C° 0 mm 1 m/s 714 mmHg 90%
    23:00 -2°C° 0 mm 1 m/s 714 mmHg 90%

    19 Dezembro, Quarta-feira

    Tempo Temperatura Precipitação Vento Pressão Humidade
    00:00 -2°C° 0 mm 1 m/s 713 mmHg 91%
    01:00 -2°C° 0 mm 1 m/s 713 mmHg 91%
    02:00 -2°C° 0 mm 1 m/s 713 mmHg 91%
    03:00 -2°C° 0 mm 1 m/s 713 mmHg 91%
    04:00 -3°C° 0 mm 1 m/s 712 mmHg 91%
    05:00 -3°C° 0 mm 1 m/s 712 mmHg 91%
    06:00 -3°C° 0 mm 1 m/s 712 mmHg 91%
    07:00 -3°C° 0 mm 1 m/s 712 mmHg 90%
    08:00 -2°C° 0 mm 1 m/s 712 mmHg 88%
    09:00 -3°C° 0 mm 2 m/s 713 mmHg 86%
    10:00 -3°C° 0 mm 2 m/s 713 mmHg 84%
    11:00 -2°C° 0 mm 2 m/s 713 mmHg 83%
    12:00 -2°C° 0 mm 2 m/s 712 mmHg 82%
    13:00 -1°C° 0 mm 2 m/s 712 mmHg 81%
    14:00 -2°C° 0 mm 2 m/s 712 mmHg 84%
    15:00 -3°C° 0 mm 2 m/s 712 mmHg 87%
    16:00 -4°C° 0 mm 2 m/s 712 mmHg 90%
    17:00 -4°C° 0 mm 2 m/s 712 mmHg 90%
    18:00 -4°C° 0 mm 2 m/s 712 mmHg 91%
    19:00 -4°C° 0 mm 2 m/s 711 mmHg 91%
    20:00 -5°C° 0 mm 2 m/s 711 mmHg 91%
    21:00 -5°C° 0 mm 2 m/s 711 mmHg 91%
    22:00 -5°C° 0 mm 2 m/s 711 mmHg 91%
    23:00 -5°C° 0 mm 2 m/s 711 mmHg 91%

    20 Dezembro, Quinta-feira

    Tempo Temperatura Precipitação Vento Pressão Humidade
    00:00 -5°C° 0 mm 2 m/s 711 mmHg 91%
    01:00 -5°C° 0 mm 2 m/s 711 mmHg 91%
    02:00 -5°C° 0 mm 2 m/s 711 mmHg 91%
    03:00 -5°C° 0 mm 2 m/s 711 mmHg 90%
    04:00 -5°C° 0 mm 2 m/s 711 mmHg 90%
    05:00 -5°C° 0 mm 2 m/s 711 mmHg 89%
    06:00 -5°C° 0 mm 2 m/s 711 mmHg 87%
    07:00 -5°C° 0 mm 2 m/s 711 mmHg 86%
    08:00 -5°C° 0 mm 3 m/s 711 mmHg 84%
    09:00 -5°C° 0 mm 3 m/s 711 mmHg 83%
    10:00 -5°C° 0 mm 3 m/s 712 mmHg 81%
    11:00 -4°C° 0 mm 3 m/s 711 mmHg 79%
    12:00 -4°C° 0 mm 3 m/s 711 mmHg 78%
    13:00 -4°C° 0 mm 3 m/s 711 mmHg 77%
    14:00 -3°C° 0 mm 2 m/s 711 mmHg 79%
    15:00 -4°C° 0 mm 2 m/s 711 mmHg 82%
    16:00 -4°C° 0 mm 2 m/s 711 mmHg 84%
    17:00 -4°C° 0 mm 2 m/s 711 mmHg 85%
    18:00 -4°C° 0 mm 2 m/s 711 mmHg 85%
    19:00 -5°C° 0 mm 2 m/s 711 mmHg 86%
    20:00 -5°C° 0 mm 2 m/s 711 mmHg 86%
    21:00 -5°C° 0 mm 2 m/s 711 mmHg 86%
    22:00 -5°C° 0 mm 2 m/s 711 mmHg 87%
    23:00 -5°C° 0 mm 2 m/s 711 mmHg 87%
    Mostrar mais